SBI5591 UNNT-UDYZ

Flight info

Callsign SBI5591
Flight time N/A
Altitude 34000
Route LUNI1K LUNIM B808 DAKIN N55 OGANU P574 NOGBU N996 PIKAN A80 GIPAR N996 SUBUT T916 SEVAN SEVA3B
Aircraft A321/M-SDE3FGHIRWY/LB1

Departure

Time N/A
Airport Novosibirsk Tolmachevo Airport (UNNT)

Arrival

Time 2026-05-07 11:57
Airport Zvartnots International Airport (UDYZ)
Time Latitude Longitude Altitude Speed Heading
2026-05-07 10:20 45.63636 54.87473 33939 ft 415 kts 237°
2026-05-07 10:21 45.62089 54.83959 33943 ft 415 kts 237°
2026-05-07 10:21 45.59009 54.76989 33954 ft 415 kts 237°
2026-05-07 10:22 45.55928 54.70028 33952 ft 415 kts 237°
2026-05-07 10:22 45.52843 54.63081 33955 ft 414 kts 237°
2026-05-07 10:23 45.49755 54.56142 33954 ft 414 kts 237°
2026-05-07 10:23 45.46652 54.49212 33955 ft 414 kts 236°
2026-05-07 10:24 45.43549 54.42302 33957 ft 414 kts 236°
2026-05-07 10:24 45.40447 54.35389 33970 ft 414 kts 237°
2026-05-07 10:25 45.37342 54.28483 33962 ft 414 kts 237°
2026-05-07 10:25 45.34228 54.21590 33957 ft 414 kts 236°
2026-05-07 10:26 45.31095 54.14654 33958 ft 414 kts 236°
2026-05-07 10:26 45.27977 54.07783 33955 ft 414 kts 236°
2026-05-07 10:27 45.24849 54.00918 33944 ft 414 kts 237°
2026-05-07 10:27 45.21724 53.94065 33944 ft 414 kts 236°
2026-05-07 10:28 45.18596 53.87210 33943 ft 414 kts 236°
2026-05-07 10:28 45.15472 53.80358 33951 ft 414 kts 237°
2026-05-07 10:29 45.12344 53.73497 33948 ft 414 kts 237°
2026-05-07 10:29 45.09205 53.66653 33948 ft 415 kts 237°
2026-05-07 10:30 45.04480 53.56391 33948 ft 415 kts 236°
2026-05-07 10:30 45.01321 53.49554 33946 ft 415 kts 236°
2026-05-07 10:31 44.98161 53.42719 33945 ft 415 kts 236°
2026-05-07 10:31 44.94998 53.35893 33947 ft 416 kts 236°
2026-05-07 10:32 44.91828 53.29069 33944 ft 416 kts 236°
2026-05-07 10:32 44.88659 53.22253 33933 ft 416 kts 237°
2026-05-07 10:33 44.85474 53.15438 33933 ft 416 kts 236°
2026-05-07 10:33 44.82278 53.08628 33935 ft 417 kts 236°
2026-05-07 10:34 44.79061 53.01776 33938 ft 417 kts 236°
2026-05-07 10:34 44.75858 52.94979 33939 ft 417 kts 236°
2026-05-07 10:35 44.72650 52.88183 33942 ft 417 kts 236°
2026-05-07 10:35 44.69436 52.81392 33944 ft 417 kts 236°
2026-05-07 10:36 44.66216 52.74609 33950 ft 417 kts 236°
2026-05-07 10:36 44.62992 52.67836 33952 ft 417 kts 236°
2026-05-07 10:37 44.59763 52.61060 33948 ft 418 kts 236°
2026-05-07 10:37 44.56525 52.54288 33955 ft 418 kts 236°
2026-05-07 10:38 44.53283 52.47524 33955 ft 418 kts 236°
2026-05-07 10:38 44.50044 52.40758 33960 ft 418 kts 236°
2026-05-07 10:39 44.46801 52.34001 33969 ft 418 kts 236°
2026-05-07 10:39 44.43546 52.27256 33962 ft 418 kts 236°
2026-05-07 10:40 44.40298 52.20543 33984 ft 416 kts 236°
2026-05-07 10:40 44.37056 52.13858 33996 ft 415 kts 237°
2026-05-07 10:41 44.33939 52.07096 34005 ft 413 kts 238°
2026-05-07 10:41 44.30886 52.00293 33999 ft 413 kts 238°
2026-05-07 10:42 44.27815 51.93529 34002 ft 412 kts 238°
2026-05-07 10:42 44.24716 51.86806 33991 ft 412 kts 237°
2026-05-07 10:43 44.21617 51.80105 34003 ft 411 kts 237°
2026-05-07 10:43 44.19024 51.74496 34000 ft 411 kts 237°
2026-05-07 10:44 44.15940 51.67811 34001 ft 410 kts 237°
2026-05-07 10:44 44.12850 51.61129 34007 ft 410 kts 237°
2026-05-07 10:45 44.09755 51.54462 34001 ft 410 kts 237°
2026-05-07 10:45 44.06651 51.47799 34009 ft 410 kts 237°
2026-05-07 10:46 44.03545 51.41149 34013 ft 410 kts 237°
2026-05-07 10:46 44.00433 51.34506 34019 ft 410 kts 237°
2026-05-07 10:47 43.97325 51.27880 34029 ft 409 kts 237°
2026-05-07 10:47 43.94215 51.21281 34042 ft 408 kts 237°
2026-05-07 10:48 43.91086 51.14655 34037 ft 408 kts 237°
2026-05-07 10:48 43.88002 51.08119 34039 ft 407 kts 237°
2026-05-07 10:49 43.84452 51.01943 34038 ft 408 kts 230°
2026-05-07 10:49 43.80768 50.95974 34041 ft 408 kts 230°
2026-05-07 10:50 43.77083 50.90008 34031 ft 408 kts 230°
2026-05-07 10:50 43.73395 50.84048 34034 ft 408 kts 230°
2026-05-07 10:51 43.69702 50.78091 34030 ft 408 kts 230°
2026-05-07 10:51 43.66004 50.72150 34026 ft 408 kts 230°
2026-05-07 10:52 43.62296 50.66216 34034 ft 408 kts 230°
2026-05-07 10:52 43.58588 50.60280 34038 ft 408 kts 230°
2026-05-07 10:53 43.54882 50.54349 34040 ft 408 kts 230°
2026-05-07 10:53 43.51171 50.48422 34037 ft 408 kts 230°
2026-05-07 10:54 43.47455 50.42501 34044 ft 408 kts 230°
2026-05-07 10:54 43.43737 50.36598 34041 ft 408 kts 230°
2026-05-07 10:55 43.40019 50.30701 34039 ft 408 kts 230°
2026-05-07 10:55 43.36301 50.24823 34043 ft 407 kts 230°
2026-05-07 10:56 43.32560 50.18916 34052 ft 407 kts 230°
2026-05-07 10:56 43.28836 50.13061 34059 ft 407 kts 229°
2026-05-07 10:57 43.25112 50.07209 34056 ft 407 kts 229°
2026-05-07 10:57 43.21387 50.01360 34061 ft 407 kts 229°
2026-05-07 10:58 43.17659 49.95514 34054 ft 407 kts 229°
2026-05-07 10:58 43.13924 49.89675 34054 ft 408 kts 229°
2026-05-07 10:59 43.10184 49.83846 34058 ft 408 kts 229°
2026-05-07 10:59 43.06429 49.78014 34055 ft 408 kts 229°
2026-05-07 11:00 43.02680 49.72180 34061 ft 409 kts 229°
2026-05-07 11:00 42.98923 49.66351 34062 ft 409 kts 229°
2026-05-07 11:01 42.95156 49.60528 34073 ft 409 kts 229°
2026-05-07 11:01 42.91384 49.54712 34068 ft 410 kts 229°
2026-05-07 11:02 42.87606 49.48895 34075 ft 410 kts 229°
2026-05-07 11:02 42.83875 49.43011 34081 ft 410 kts 230°
2026-05-07 11:03 42.80171 49.37102 34080 ft 410 kts 230°
2026-05-07 11:03 42.76445 49.31213 34085 ft 411 kts 230°
2026-05-07 11:04 42.72706 49.25341 34069 ft 410 kts 230°
2026-05-07 11:04 42.68940 49.19451 34080 ft 410 kts 230°
2026-05-07 11:05 42.65202 49.13590 34087 ft 410 kts 230°
2026-05-07 11:05 42.61466 49.07744 34090 ft 410 kts 230°
2026-05-07 11:06 42.57728 49.01916 34095 ft 410 kts 230°
2026-05-07 11:06 42.53985 48.96090 34091 ft 410 kts 230°
2026-05-07 11:07 42.50240 48.90267 34091 ft 410 kts 230°
2026-05-07 11:07 42.46492 48.84452 34091 ft 410 kts 229°
2026-05-07 11:08 42.42740 48.78655 34081 ft 410 kts 230°
2026-05-07 11:08 42.38985 48.72849 34081 ft 410 kts 230°
2026-05-07 11:09 42.35226 48.67050 34089 ft 410 kts 229°
2026-05-07 11:09 42.31465 48.61266 34089 ft 410 kts 229°
2026-05-07 11:10 42.27700 48.55488 34094 ft 410 kts 229°
2026-05-07 11:10 42.23934 48.49706 34090 ft 410 kts 230°
2026-05-07 11:11 42.20187 48.43913 34082 ft 410 kts 230°
2026-05-07 11:11 42.16431 48.38121 34087 ft 410 kts 230°
2026-05-07 11:12 42.12672 48.32350 34096 ft 409 kts 230°
2026-05-07 11:12 42.08544 48.27080 34097 ft 412 kts 216°
2026-05-07 11:13 42.03616 48.23116 34080 ft 412 kts 213°
2026-05-07 11:13 41.98662 48.19173 34093 ft 411 kts 213°
2026-05-07 11:14 41.93749 48.15245 34102 ft 410 kts 214°
2026-05-07 11:14 41.88845 48.11326 34110 ft 410 kts 213°
2026-05-07 11:15 41.83937 48.07422 34108 ft 410 kts 213°
2026-05-07 11:15 41.79026 48.03538 34120 ft 408 kts 213°
2026-05-07 11:16 41.74142 47.99659 34117 ft 409 kts 213°
2026-05-07 11:16 41.69241 47.95784 34115 ft 408 kts 214°
2026-05-07 11:17 41.64355 47.91925 34124 ft 407 kts 214°
2026-05-07 11:17 41.59487 47.88086 34126 ft 406 kts 214°
2026-05-07 11:18 41.55436 47.84902 34128 ft 407 kts 214°
2026-05-07 11:18 41.50526 47.81042 34125 ft 406 kts 214°
2026-05-07 11:19 41.45645 47.77222 34132 ft 407 kts 214°
2026-05-07 11:19 41.40763 47.73409 34139 ft 407 kts 214°
2026-05-07 11:20 41.35878 47.69594 34109 ft 406 kts 213°
2026-05-07 11:20 41.31014 47.65804 34133 ft 405 kts 214°
2026-05-07 11:21 41.26169 47.62043 34137 ft 400 kts 214°
2026-05-07 11:21 41.21815 47.57548 34142 ft 396 kts 230°
2026-05-07 11:22 41.18857 47.51429 34144 ft 395 kts 241°
2026-05-07 11:22 41.16221 47.45028 34148 ft 395 kts 241°
2026-05-07 11:23 41.13567 47.38651 34153 ft 394 kts 241°
2026-05-07 11:23 41.10916 47.32282 34153 ft 394 kts 241°
2026-05-07 11:24 41.08267 47.25911 34151 ft 394 kts 241°
2026-05-07 11:24 41.05616 47.19548 34154 ft 394 kts 241°
2026-05-07 11:25 41.02955 47.13193 34141 ft 394 kts 240°
2026-05-07 11:25 41.00293 47.06844 34141 ft 394 kts 240°
2026-05-07 11:26 40.97628 47.00498 34134 ft 394 kts 240°
2026-05-07 11:26 40.94945 46.94112 34130 ft 394 kts 240°
2026-05-07 11:27 40.92276 46.87780 34137 ft 394 kts 240°
2026-05-07 11:27 40.89995 46.81223 34121 ft 395 kts 253°
2026-05-07 11:28 40.89158 46.74025 34121 ft 397 kts 260°
2026-05-07 11:28 40.88482 46.66782 34115 ft 397 kts 260°
2026-05-07 11:29 40.87792 46.59527 34128 ft 398 kts 259°
2026-05-07 11:29 40.87091 46.52269 34116 ft 399 kts 259°
2026-05-07 11:30 40.86392 46.45001 34110 ft 399 kts 259°
2026-05-07 11:30 40.85691 46.37730 34110 ft 399 kts 259°
2026-05-07 11:31 40.84982 46.30453 34111 ft 399 kts 259°
2026-05-07 11:31 40.84272 46.23177 34112 ft 399 kts 259°
2026-05-07 11:32 40.83190 46.12263 34105 ft 400 kts 259°
2026-05-07 11:33 40.82462 46.04983 34107 ft 400 kts 259°
2026-05-07 11:33 40.81735 45.97694 34108 ft 401 kts 259°
2026-05-07 11:34 40.80997 45.90386 34105 ft 402 kts 259°
2026-05-07 11:34 40.80246 45.83027 34107 ft 402 kts 259°
2026-05-07 11:35 40.79502 45.75717 34116 ft 402 kts 259°
2026-05-07 11:35 40.78753 45.68397 34116 ft 403 kts 259°
2026-05-07 11:36 40.77995 45.61078 33981 ft 401 kts 259°
2026-05-07 11:36 40.77612 45.57425 33240 ft 402 kts 259°
2026-05-07 11:36 40.77218 45.53758 32410 ft 405 kts 257°
2026-05-07 11:36 40.76525 45.50170 31658 ft 404 kts 249°
2026-05-07 11:37 40.75399 45.46775 30859 ft 405 kts 241°
2026-05-07 11:37 40.74016 45.43528 29972 ft 409 kts 240°
2026-05-07 11:37 40.72614 45.40244 29014 ft 412 kts 240°
2026-05-07 11:37 40.71205 45.36938 28091 ft 415 kts 240°
2026-05-07 11:38 40.69790 45.33612 27137 ft 418 kts 240°
2026-05-07 11:38 40.68363 45.30257 26151 ft 422 kts 240°
2026-05-07 11:38 40.66924 45.26880 25241 ft 425 kts 240°
2026-05-07 11:38 40.65470 45.23477 24314 ft 428 kts 240°
2026-05-07 11:39 40.64014 45.20078 23864 ft 419 kts 240°
2026-05-07 11:39 40.62609 45.16802 23769 ft 403 kts 240°
2026-05-07 11:39 40.61256 45.13655 23632 ft 387 kts 239°
2026-05-07 11:39 40.59958 45.10637 23494 ft 372 kts 239°
2026-05-07 11:40 40.58708 45.07731 23349 ft 358 kts 239°
2026-05-07 11:40 40.57508 45.04937 23208 ft 344 kts 239°
2026-05-07 11:40 40.56348 45.02251 23069 ft 331 kts 239°
2026-05-07 11:40 40.55229 44.99661 22931 ft 320 kts 239°
2026-05-07 11:41 40.54142 44.97147 22578 ft 314 kts 239°
2026-05-07 11:41 40.52950 44.94758 22124 ft 312 kts 230°
2026-05-07 11:41 40.51539 44.92603 21643 ft 311 kts 229°
2026-05-07 11:41 40.50131 44.90455 21179 ft 310 kts 229°
2026-05-07 11:42 40.48712 44.88281 20694 ft 309 kts 229°
2026-05-07 11:42 40.47317 44.86138 20185 ft 309 kts 229°
2026-05-07 11:42 40.45925 44.84001 19790 ft 307 kts 229°
2026-05-07 11:42 40.44539 44.81882 19419 ft 305 kts 229°
2026-05-07 11:43 40.43153 44.79768 19177 ft 306 kts 229°
2026-05-07 11:43 40.41760 44.77645 18947 ft 307 kts 229°
2026-05-07 11:43 40.40368 44.75526 18592 ft 307 kts 229°
2026-05-07 11:43 40.38973 44.73402 18102 ft 307 kts 229°
2026-05-07 11:44 40.37580 44.71279 17632 ft 307 kts 229°
2026-05-07 11:44 40.36188 44.69156 17175 ft 306 kts 229°
2026-05-07 11:44 40.34803 44.67040 16713 ft 306 kts 230°
2026-05-07 11:44 40.33455 44.64882 16336 ft 304 kts 231°
2026-05-07 11:45 40.32140 44.62700 15895 ft 304 kts 232°
2026-05-07 11:45 40.30842 44.60520 15429 ft 305 kts 232°
2026-05-07 11:45 40.29547 44.58344 15139 ft 300 kts 232°
2026-05-07 11:45 40.28262 44.56197 14762 ft 299 kts 231°
2026-05-07 11:46 40.26979 44.54063 14390 ft 298 kts 231°
2026-05-07 11:46 40.25695 44.51937 14020 ft 296 kts 231°
2026-05-07 11:46 40.24420 44.49829 13644 ft 295 kts 231°
2026-05-07 11:46 40.23157 44.47743 12975 ft 290 kts 231°
2026-05-07 11:47 40.21908 44.45681 12208 ft 287 kts 231°
2026-05-07 11:47 40.20677 44.43651 11769 ft 284 kts 231°
2026-05-07 11:47 40.19449 44.41628 11343 ft 284 kts 231°
2026-05-07 11:47 40.18226 44.39612 10920 ft 283 kts 232°
2026-05-07 11:48 40.17003 44.37598 10512 ft 284 kts 231°
2026-05-07 11:48 40.15781 44.35588 10103 ft 280 kts 231°
2026-05-07 11:48 40.14602 44.33576 9590 ft 277 kts 237°
2026-05-07 11:48 40.13631 44.31411 9180 ft 276 kts 239°
2026-05-07 11:49 40.12667 44.29239 8761 ft 276 kts 239°
2026-05-07 11:49 40.11701 44.27074 8361 ft 276 kts 239°
2026-05-07 11:49 40.10731 44.24910 7962 ft 276 kts 239°
2026-05-07 11:49 40.09763 44.22754 7552 ft 276 kts 239°
2026-05-07 11:50 40.08790 44.20581 7141 ft 278 kts 239°
2026-05-07 11:50 40.07811 44.18391 6718 ft 279 kts 239°
2026-05-07 11:50 40.06834 44.16203 6359 ft 278 kts 240°
2026-05-07 11:50 40.06180 44.13906 6288 ft 264 kts 264°
2026-05-07 11:51 40.06301 44.11600 6226 ft 252 kts 288°
2026-05-07 11:51 40.06778 44.10204 6192 ft 249 kts 304°
2026-05-07 11:51 40.07964 44.08583 6108 ft 248 kts 327°
2026-05-07 11:51 40.09538 44.07716 6060 ft 247 kts 349°
2026-05-07 11:52 40.11254 44.07734 6002 ft 249 kts 13°
2026-05-07 11:52 40.12827 44.08632 5946 ft 249 kts 37°
2026-05-07 11:52 40.14002 44.10276 5891 ft 249 kts 60°
2026-05-07 11:52 40.14573 44.12397 5837 ft 247 kts 84°
2026-05-07 11:53 40.14607 44.14568 5801 ft 235 kts 91°
2026-05-07 11:53 40.14593 44.16686 5741 ft 231 kts 91°
2026-05-07 11:53 40.14590 44.18786 5538 ft 230 kts 90°
2026-05-07 11:53 40.14601 44.20835 5264 ft 219 kts 89°
2026-05-07 11:54 40.14618 44.22771 4980 ft 208 kts 89°
2026-05-07 11:54 40.14633 44.24614 4713 ft 199 kts 89°
2026-05-07 11:54 40.14645 44.26381 4475 ft 187 kts 89°
2026-05-07 11:54 40.14656 44.27978 4224 ft 166 kts 89°
2026-05-07 11:55 40.14666 44.29447 4004 ft 159 kts 89°
2026-05-07 11:55 40.14675 44.30874 3801 ft 156 kts 89°
2026-05-07 11:55 40.14684 44.32288 3593 ft 156 kts 90°
2026-05-07 11:55 40.14692 44.33716 3384 ft 159 kts 91°
2026-05-07 11:56 40.14702 44.35183 3155 ft 162 kts 90°
2026-05-07 11:56 40.14719 44.36649 2967 ft 161 kts 91°
2026-05-07 11:56 40.14724 44.38112 2831 ft 151 kts 90°
2026-05-07 11:56 40.14729 44.39238 2832 ft 96 kts 90°
2026-05-07 11:57 40.14733 44.39880 2835 ft 42 kts 89°
2026-05-07 11:57 40.14765 44.40031 2837 ft 7 kts
2026-05-07 11:57 40.14833 44.40034 2837 ft 13 kts 359°
2026-05-07 11:57 40.14917 44.40033 2837 ft 8 kts 359°
2026-05-07 11:58 40.14973 44.40019 2837 ft 10 kts 335°
2026-05-07 11:58 40.15040 44.40005 2836 ft 8 kts 358°
2026-05-07 11:58 40.15085 44.40005 2838 ft 1 kts 360°
2026-05-07 11:58 40.15090 44.40005 2837 ft 0 kts 360°